Hourly Data Report for October 02, 2017

All times are specified in Local Standard Time (LST). Add 1 hour to adjust for Daylight Saving Time where and when it is observed.

BANCROFT AUTO
ONTARIO

45°04'17.000" N
77°52'44.000" W
330.70 m
616I001
71294
WRK

Download Data

Hourly Data (October 2017)
Hourly Data Report for October 2, 2017
Temp Definition
°C
Dew Point Temp Definition
°C
Rel Hum Definition
%
Wind Dir Definition
10's deg

Wind Spd Definition
km/h
Visibility Definition
km
Stn Press Definition
kPa
Hmdx Definition


Wind Chill Definition


Weather Definition


TIME
00:00 1.1 1.1 100   0   98.81     LegendNANA
01:00 2.5 2.5 100   0   98.84     LegendNANA
02:00 2.7 2.7 100   0   98.86     LegendNANA
03:00 2.9 2.9 100   0   98.87     LegendNANA
04:00 2.4 2.4 100   0   98.90     LegendNANA
05:00 2.0 2.0 100   0   98.94     LegendNANA
06:00 1.7 1.7 100   0   98.98     LegendNANA
07:00 1.8 1.8 100   0   99.00     LegendNANA
08:00 3.5 3.5 100   0   99.05     LegendNANA
09:00 8.5 8.5 100   0   99.08     LegendNANA
10:00 14.3 9.7 74 13 3   99.09     LegendNANA
11:00 17.0 5.3 46 16 7   99.08     LegendNANA
12:00 18.1 3.9 39 19 5   99.06     LegendNANA
13:00 19.1 4.4 38 15 6   99.03     LegendNANA
14:00 19.3 2.7 33 13 7   98.98     LegendNANA
15:00 19.3 2.6 33 15 4   98.99     LegendNANA
16:00 18.8 2.4 33 15 4   98.99     LegendNANA
17:00 17.4 5.7 46 18 3   99.02     LegendNANA
18:00 11.9 7.5 74 18 1   99.03     LegendNANA
19:00 8.8 6.5 86 0 1   99.03     LegendNANA
20:00 6.7 6.2 96   0   99.10     LegendNANA
21:00 5.3 5.0 98   0   99.15     LegendNANA
22:00 4.3 4.1 99 30 2   99.15     LegendNANA
23:00 3.0 2.8 99 0 1   99.13     LegendNANA

Notes on Data Quality.

Legend

  • E = Estimated
  • M = Missing
  • NA = Not Available
  • ‡ = Partner data that is not subject to review by the National Climate Archives
Date modified: